OPS 4682 DEB, 38382

Orbit data source: Space-Track

OPS 4682 DEB, 38382 is space debris in LEO originally from a launch on Sat, 03 Apr 1965 UTC launched from the Air Force Western Test Range (AFWTR). Debris objects in space refer to the collection of defunct objects orbiting the Earth. Examples of debris include non-operational satellites, rocket bodies, and fragments generated from explosions, collisions, or faulty payload assembly.

Loading next visibility...
Identifier
38382, 1965-027CK
Orbit
LEO
Country
Flag of USUS
Related business
Manufacturer
Unknown
Mission
Spacecraft
Bus & Motor
Unknown
Mass
Unknown
Launch date (UTC)
1965-04-03 (61 years ago)
Launch vehicle
Unknown
Launch site
Air Force Western Test Range (AFWTR)
Object type
Payload
Rocket body
Debris
Shape & HBR
Unknown shape, 0.1 m
Radar Cross Section
Small (<0.1 m²)

Expand to show TLE details & history
Last TLE update: 5 hours ago

TLE from 5 hours ago
0 OPS 4682 DEB
1 38382U 65027CK  26104.18423889  .00000610  00000-0  20948-2 0  9992
2 38382  90.2535   7.5011 0026476 338.4942  21.5064 12.96764452 54139
Epoch: 2026-04-14T04:25Z
TLE epoch observation values (Epoch: 2026-04-14T04:25:18.240Z)
Latitude
Longitude
98.81097°
Altitude
1,258.821 km
Speed
7.235 km/s
True Right ascension
00h 30m 00s
True Declination
0° 00' 00"
Sunlit
Object was in daylight at epoch
Visualization orbit readout
Latitude
Unknown
Longitude
Unknown
Altitude
Unknown
Speed
Unknown
Apparent Right ascension
Unknown
Apparent Declination
Unknown
Sunlit
N/A
Visualization observer readout
Local Sidereal Time
15:42:25
Azimuth
Unknown
Elevation
Unknown
Doppler factor
Unknown
Orbital elements
Apogee altitude
1,292.176 km
Perigee altitude
1,251.668 km
Semi-major axis
7,650.059 km
Eccentricity
0.00265
Inclination
90.2535°
RAAN
7.5011°
Arg. of periapsis
338.4942°
True anomaly
21.61797°
Mean anomaly
21.5064°
Eccentric anomaly
21.56215°
Mean motion
3.24374 °/min
Orbital period
110.98 mins
BSTAR
0.0020948
Loading maneuver chart data...
Computing Atmospheric mass density...
Loading historical data...
Loading historical data...
Loading historical data...
Loading historical data...
Loading historical data...
Loading historical data...
Loading historical data...

Documentation

Showing up to 5 results
|